User: anonymous   Login
Location: St. Louis
(38.6270°N, 90.1994°W)
Time: 23:04:23
(UTC-06:00)
Language:

KAITUO 1B - Orbit

View from above orbital plane
View from above orbital plane
View from above satellite
View from above satellite

Ground track
Ground track

The orbit data is extracted from the following two-line orbital elements,

1 40912U 15049P   22024.85133194  .00005200  00000-0  22312-3 0  9999
2 40912  97.4417  37.2534 0015564  87.5443  30.1218 15.23049521351877
Epoch (UTC): 24 January 2022 20:25:55
Eccentricity: 0.0015564
inclination: 97.4417°
perigee height: 486 km
apogee height: 507 km
right ascension of ascending node: 37.2534°
argument of perigee: 87.5443°
revolutions per day: 15.23049521
mean anomaly at epoch: 30.1218°
orbit number at epoch: 35187

The dashed part of the orbit path shows where the satellite is in the earth's shadow,  

DLR